South Hill, VA

4:11 PM EST on December 06, 2019 (GMT -0500)
Mecklenburg-Brunswick Regional

Weather History for KAVC - November, 2019

Change the Weather History Date:

Thursday, November 21, 2019

  Actual Average (WUND) Record (WUND)
Temperature  
Mean Temperature 40 °F -  
Max Temperature 53 °F - - (-1)
Min Temperature 27 °F - - (-1)
Degree Days  
Heating Degree Days 25    
Moisture  
Dew Point 33 °F    
Average Humidity 73    
Maximum Humidity 94    
Minimum Humidity 44    
Precipitation  
Precipitation 0.00 in - - ()
Sea Level Pressure  
Sea Level Pressure 30.28 in    
Wind  
Wind Speed 2 mph (SSW)    
Max Wind Speed 9 mph    
Max Gust Speed -    
Visibility 10 miles    
Events      
Averages and records for this station are not official NWS values.
T = Trace of Precipitation, MM = Missing Value Source: NWS Daily Summary

Daily Weather History Graph

Daily Weather History Graph

Search for Another Location

Airport or City:

Astronomy

Nov. 21, 2019 Rise Set
Actual Time 6:56 AM EST 4:59 PM EST
Civil Twilight 6:28 AM EST 5:27 PM EST
Nautical Twilight 5:56 AM EST 5:59 PM EST
Astronomical Twilight 5:25 AM EST 6:30 PM EST
Moon 1:01 AM EST (11/21) 2:17 PM EST (11/21)
Length of Visible Light 10h 59m
Length of Day
10h 03m
Waning Crescent, 30% of the Moon is Illuminated
Nov 21
Waning Crescent
Nov 26
New
Dec 4
First Quarter
Dec 12
Full
Dec 18
Last Quarter

Hourly Weather History & Observations

Time (EST) Temp. Windchill Dew Point Humidity Pressure Visibility Wind Dir Wind Speed Gust Speed Precip Events Conditions
12:15 AM 36.0 °F 32.1 °F 31.1 °F 82% 30.30 in 10.0 mi North 4.6 mph - N/A   Clear
12:35 AM 36.0 °F - 31.1 °F 82% 30.30 in 10.0 mi Calm Calm - N/A   Clear
12:55 AM 34.0 °F - 31.8 °F 92% 30.31 in 10.0 mi Calm Calm - N/A   Clear
1:15 AM 31.6 °F - 29.8 °F 93% 30.31 in 10.0 mi Calm Calm - N/A   Clear
1:35 AM 30.9 °F - 29.3 °F 94% 30.31 in 10.0 mi Calm Calm - N/A   Clear
1:55 AM 30.6 °F - 28.8 °F 93% 30.32 in 10.0 mi Calm Calm - N/A   Clear
2:15 AM 31.1 °F - 29.5 °F 94% 30.33 in 10.0 mi Calm Calm - N/A   Clear
2:35 AM 31.8 °F - 30.0 °F 93% 30.32 in 10.0 mi Calm Calm - N/A   Clear
2:55 AM 30.6 °F - 28.0 °F 90% 30.32 in 10.0 mi Calm Calm - N/A   Clear
3:15 AM 29.5 °F - 27.7 °F 93% 30.32 in 10.0 mi Calm Calm - N/A   Clear
3:35 AM 29.3 °F - 27.5 °F 93% 30.32 in 10.0 mi Calm Calm - N/A   Clear
4:15 AM 29.8 °F - 28.0 °F 93% 30.33 in 10.0 mi Calm Calm - N/A   Clear
4:35 AM 29.3 °F - 27.5 °F 93% 30.33 in 10.0 mi Calm Calm - N/A   Clear
4:55 AM 29.3 °F - 27.5 °F 93% 30.33 in 10.0 mi Calm Calm - N/A   Clear
5:15 AM 29.7 °F - 27.9 °F 93% 30.34 in 10.0 mi Calm Calm - N/A   Clear
5:55 AM 28.9 °F - 27.1 °F 93% 30.35 in 10.0 mi Calm Calm - N/A   Clear
6:35 AM 27.5 °F - 26.1 °F 94% 30.34 in 10.0 mi Calm Calm - N/A   Clear
7:15 AM 28.6 °F - 26.8 °F 93% 30.34 in 10.0 mi Calm Calm - N/A   Clear
7:35 AM 28.6 °F - 26.8 °F 93% 30.35 in 10.0 mi Calm Calm - N/A   Clear
7:55 AM 29.1 °F - 27.3 °F 93% 30.36 in 10.0 mi Calm Calm - N/A   Clear
8:15 AM 31.6 °F - 30.0 °F 94% 30.37 in 10.0 mi Calm Calm - N/A   Clear
8:35 AM 36.5 °F - 34.2 °F 91% 30.37 in 10.0 mi Calm Calm - N/A   Clear
8:55 AM 39.6 °F - 35.4 °F 85% 30.37 in 10.0 mi Calm Calm - N/A   Clear
9:15 AM 43.9 °F 41.3 °F 30.7 °F 60% 30.37 in 10.0 mi North 4.6 mph - N/A   Clear
9:35 AM 45.5 °F 44.2 °F 31.8 °F 59% 30.37 in 10.0 mi North 3.5 mph - N/A   Clear
9:55 AM 46.4 °F 45.2 °F 30.9 °F 55% 30.37 in 10.0 mi North 3.5 mph - N/A   Clear
10:15 AM 47.3 °F - 30.6 °F 52% 30.37 in 10.0 mi NNE 3.5 mph - N/A   Clear
10:55 AM 49.3 °F - 30.4 °F 48% 30.36 in 10.0 mi Calm Calm - N/A   Clear
11:35 AM 51.8 °F - 31.1 °F 45% 30.34 in 10.0 mi Calm Calm - N/A   Clear
12:35 PM 52.3 °F - 31.6 °F 45% 30.30 in 10.0 mi Calm Calm - N/A   Clear
12:55 PM 53.1 °F - 31.8 °F 44% 30.29 in 10.0 mi SSW 3.5 mph - N/A   Clear
1:55 PM 52.7 °F - 32.0 °F 45% 30.27 in 10.0 mi South 4.6 mph - N/A   Clear
2:15 PM 52.3 °F - 31.8 °F 46% 30.26 in 10.0 mi WSW 3.5 mph - N/A   Clear
2:35 PM 52.7 °F - 31.8 °F 45% 30.26 in 10.0 mi Calm Calm - N/A   Clear
2:55 PM 52.7 °F - 32.7 °F 47% 30.26 in 10.0 mi WSW 3.5 mph - N/A   Clear
3:15 PM 52.3 °F - 33.3 °F 48% 30.26 in 10.0 mi Calm Calm - N/A   Clear
3:35 PM 53.1 °F - 34.7 °F 50% 30.27 in 10.0 mi Calm Calm - N/A   Clear
3:55 PM 52.5 °F - 32.7 °F 47% 30.25 in 10.0 mi Calm Calm - N/A   Clear
4:15 PM 51.8 °F - 35.4 °F 54% 30.25 in 10.0 mi Calm Calm - N/A   Clear
4:35 PM 50.5 °F - 37.4 °F 61% 30.24 in 10.0 mi Calm Calm - N/A   Clear
4:55 PM 48.9 °F - 39.2 °F 69% 30.24 in 10.0 mi Calm Calm - N/A   Clear
5:15 PM 47.8 °F - 39.7 °F 74% 30.23 in 10.0 mi Calm Calm - N/A   Clear
5:35 PM 49.1 °F - 37.6 °F 64% 30.22 in 10.0 mi Calm Calm - N/A   Scattered Clouds
5:55 PM 46.4 °F 45.2 °F 40.8 °F 81% 30.23 in 10.0 mi SSW 3.5 mph - N/A   Clear
6:15 PM 47.3 °F - 39.9 °F 76% 30.24 in 10.0 mi Calm Calm - N/A   Clear
6:35 PM 46.2 °F - 40.8 °F 81% 30.24 in 10.0 mi Calm Calm - N/A   Clear
7:15 PM 46.9 °F - 39.4 °F 75% 30.23 in 10.0 mi Calm Calm - N/A   Clear
7:55 PM 46.4 °F 44.3 °F 37.0 °F 70% 30.22 in 10.0 mi SSW 4.6 mph - N/A   Clear
8:15 PM 44.6 °F 41.4 °F 38.1 °F 78% 30.22 in 10.0 mi South 5.8 mph - N/A   Clear
8:35 PM 46.0 °F 43.1 °F 37.4 °F 72% 30.21 in 10.0 mi South 5.8 mph - N/A   Mostly Cloudy
8:55 PM 46.8 °F - 37.6 °F 70% 30.21 in 10.0 mi SSW 5.8 mph - N/A   Overcast
9:15 PM 47.7 °F - 37.0 °F 67% 30.20 in 10.0 mi SSW 6.9 mph - N/A   Overcast
9:55 PM 48.2 °F - 36.9 °F 65% 30.20 in 10.0 mi SSW 6.9 mph - N/A   Overcast
10:15 PM 48.2 °F - 37.0 °F 65% 30.19 in 10.0 mi SSW 8.1 mph - N/A   Overcast
10:35 PM 48.0 °F - 36.9 °F 65% 30.18 in 10.0 mi South 8.1 mph - N/A   Mostly Cloudy
10:55 PM 47.5 °F - 37.2 °F 68% 30.16 in 10.0 mi SSW 9.2 mph - N/A   Mostly Cloudy
11:15 PM 47.7 °F - 36.7 °F 66% 30.16 in 10.0 mi SSW 8.1 mph - N/A   Overcast
11:35 PM 48.2 °F - 37.0 °F 65% 30.16 in 10.0 mi SSW 9.2 mph - N/A   Overcast
11:55 PM 48.2 °F - 37.2 °F 66% 30.16 in 10.0 mi SSW 6.9 mph - N/A   Overcast